Flag for Germany Weather past 2 weeks in Dorsten, North Rhine-Westphalia, Germany

Now
52 °F

Drizzle. Low clouds.


Feels Like: 49 °F
Forecast: 47 / 51 °F
Wind: 8 mph from Southwest

Location: Essen

Current Time: Dec 22, 2014 at 11:46:55 PM

Latest Report: Dec 22, 2014 at 11:00 PM


Visibility: 17 mi

Pressure: 30.06 "Hg

Humidity: 86%

Dew point: 48 °F

Location of DorstenLocation

Historic Weather in Dorsten — Graph

°F

Dorsten temperature yesterday

Maximum temperature yesterday: 45 °F (at 11:00 PM)
Minimum temperature yesterday: 39 °F (at 2:00 AM)
Average temperature yesterday: 41 °F

Past Weeks' High & Low Weather Summary

 TemperatureHumidityPressure
High53 °F (Dec 18, 6:00 PM)100% (Dec 8, 9:00 PM)30.40 "Hg (Dec 8, 9:00 PM)
Low32 °F (Dec 14, 8:00 AM)73% (Dec 8, 1:00 PM)29.38 "Hg (Dec 12, 3:00 PM)
Average42 °F92%29.96 "Hg
* Reported Dec 7 10:00 PM — Dec 22 10:00 PM, Dorsten, Weather by CustomWeather, © 2014

Note: Actual official high and low records may vary slightly from our data, if they occured in-between our weather recording intervals... More about our weather records

Advertising

Dorsten weather history for previous 24 hours

 ConditionsComfort  
Time TempWeatherWind HumidityBarometerVisibility
10:00 PM
Dec 22
51 °FDrizzle. Low clouds.9 mph92%30.06 "Hg9 mi
9:00 PM52 °FLow clouds.8 mph89%30.05 "Hg14 mi
8:00 PM52 °FLight rain. Overcast.8 mph89%30.04 "Hg14 mi
7:00 PM51 °FDrizzle. Low clouds.8 mph91%30.06 "Hg14 mi
6:00 PM50 °FDrizzle. Low clouds.6 mph97%30.05 "Hg4 mi
5:00 PM50 °FDrizzle. Low clouds.7 mph92%30.05 "Hg11 mi
4:00 PM49 °FLow clouds.8 mph96%30.05 "Hg12 mi
3:00 PM48 °FLight freezing rain. Low clouds.8 mph97%30.05 "Hg3 mi
2:00 PM47 °FLight freezing rain. Low clouds.9 mph94%30.05 "Hg4 mi
1:00 PM47 °FLow clouds.9 mph91%30.07 "Hg16 mi
12:00 PM46 °FDrizzle. Low clouds.10 mph93%30.09 "Hg5 mi
11:00 AM46 °FDrizzle. Low clouds.10 mph92%30.10 "Hg3 mi
10:00 AM46 °FLow clouds.9 mph90%30.11 "Hg14 mi
9:00 AM46 °FLow clouds.10 mph92%30.11 "Hg9 mi
8:00 AM46 °FLow clouds.9 mph92%30.10 "Hg10 mi
7:00 AM47 °FLow clouds.9 mph91%30.11 "Hg9 mi
6:00 AM46 °FLow clouds.8 mph90%30.11 "Hg15 mi
5:00 AM46 °FLow clouds.8 mph90%30.11 "Hg16 mi
4:00 AM46 °FLow clouds.8 mph89%30.14 "Hg18 mi
3:00 AM46 °FOvercast.8 mph87%30.16 "Hg18 mi
2:00 AM46 °FLow clouds.10 mph87%30.16 "Hg19 mi
1:00 AM46 °FLow clouds.10 mph88%30.18 "Hg17 mi
12:00 AM45 °FOvercast.8 mph90%30.21 "Hg16 mi
11:00 PM
Dec 21
45 °FLow clouds.7 mph94%30.22 "Hg10 mi
Weather by CustomWeather, © 2014

See weather overviewHow to use our weather pages